Date,TemperatureHighF,TemperatureAvgF,TemperatureLowF,DewpointHighF,DewpointAvgF,DewpointLowF,HumidityHigh,HumidityAvg,HumidityLow,PressureMaxIn,PressureMinIn,WindSpeedMaxMPH,WindSpeedAvgMPH,GustSpeedMaxMPH,PrecipitationSumIn
2013-1-1,21.2,16.5,10.0,10.6,8.7,6.1,84,71,58,30.43,30.34,7,2,8,0.00
2013-1-2,30.6,20.7,5.2,20.6,13.8,2.4,90,75,62,30.37,30.26,8,4,12,0.00
2013-1-3,31.4,27.1,18.2,26.1,21.4,13.6,89,79,64,30.48,30.33,6,3,12,0.00
2013-1-4,34.4,26.9,10.9,25.0,20.5,8.1,89,77,66,30.46,30.39,9,4,13,0.00
2013-1-5,38.4,34.0,22.1,34.4,30.4,19.4,94,87,76,30.36,30.15,7,5,9,0.01
2013-1-6,29.5,25.2,19.7,22.7,19.8,15.5,87,80,70,30.47,30.23,7,4,17,0.00
2013-1-7,40.7,32.4,19.4,30.4,26.1,16.9,91,78,61,30.46,30.24,11,7,17,0.00
2013-1-8,45.7,36.3,26.8,35.7,30.3,24.3,91,79,63,30.27,30.16,8,4,13,0.00
2013-1-9,49.1,41.0,32.3,36.0,31.9,27.7,88,71,48,30.59,30.32,6,2,11,0.00
2013-1-10,43.7,37.7,25.9,42.5,33.2,23.4,98,85,58,30.53,29.98,4,1,7,0.49
2013-1-11,56.2,51.2,46.4,51.9,48.6,45.6,98,91,83,29.91,29.77,13,7,17,0.40
2013-1-12,44.7,35.5,27.0,37.6,29.6,24.1,89,79,71,30.11,29.99,8,4,13,0.00
2013-1-13,19.6,17.7,14.6,14.6,12.4,9.7,84,79,74,30.42,30.18,6,3,10,0.00
2013-1-14,25.1,18.4,10.9,16.0,11.9,7.8,89,76,61,30.63,30.57,8,2,9,0.00
2013-1-15,30.4,22.2,9.5,19.0,15.1,7.5,92,75,52,30.58,30.31,6,1,6,0.00
2013-1-16,38.7,31.8,17.4,28.4,21.9,12.6,82,67,52,30.20,30.03,10,6,17,0.00
2013-1-17,32.8,29.1,25.6,27.9,19.8,14.4,89,69,50,30.56,30.38,8,4,11,0.00
2013-1-18,47.1,39.8,23.1,33.2,28.8,19.5,86,65,56,30.49,30.12,13,9,22,0.01
2013-1-20,20.7,18.2,14.8,13.8,10.1,7.1,84,71,56,30.47,30.42,6,3,7,0.00
2013-1-21,11.7,8.1,5.1,0.6,-2.8,-5.6,74,61,50,30.51,30.44,10,6,16,0.00
2013-1-22,14.7,9.8,1.0,1.8,-2.0,-6.5,78,59,49,30.61,30.51,5,3,11,0.00
2013-1-23,33.7,24.6,15.4,18.7,12.3,3.2,68,59,47,30.44,30.25,10,5,17,0.00
2013-1-24,22.3,16.8,6.8,10.8,4.3,-2.2,68,58,44,30.79,30.48,10,3,13,0.00
2013-1-25,37.7,29.9,21.5,21.4,17.9,14.0,76,61,46,30.30,30.15,10,4,13,0.00
2013-1-26,32.3,26.3,11.9,16.6,12.9,7.1,81,58,43,30.54,30.45,4,1,5,0.00
2013-1-27,38.1,34.0,29.7,37.1,31.4,22.4,97,90,74,30.39,30.02,7,4,17,0.14
2013-1-28,55.0,50.4,48.7,54.7,49.7,48.2,99,97,94,30.05,29.90,7,2,11,0.02
2013-1-29,66.2,58.1,51.0,61.7,56.5,50.4,99,95,85,29.77,29.55,12,5,22,1.26
2013-1-30,38.5,30.2,20.5,38.2,27.8,15.7,99,91,81,29.85,29.36,11,6,20,0.28
2013-1-31,17.3,12.2,6.3,13.0,6.1,0.4,84,76,70,30.38,29.99,10,7,21,0.00
2013-2-1,19.3,11.2,1.1,10.5,3.0,-4.4,80,69,62,30.59,30.34,7,4,11,0.00
2013-2-2,28.1,21.1,16.3,24.2,15.5,10.3,89,79,71,30.27,30.18,7,3,15,0.00
2013-2-3,28.9,25.4,22.6,21.3,17.5,15.6,88,72,59,30.25,30.15,8,4,13,0.00
2013-2-4,34.9,29.2,23.0,27.1,23.6,19.4,87,80,70,30.11,29.92,11,5,16,0.00
2013-2-5,40.5,33.1,22.0,32.3,27.9,19.8,91,81,71,30.18,29.96,9,4,17,0.00
2013-2-6,45.2,36.9,22.3,34.3,30.5,21.0,97,79,64,30.33,30.18,7,2,10,0.00
2013-2-7,37.3,36.1,34.7,36.4,35.0,33.1,98,96,93,30.12,29.97,7,2,11,0.66
2013-2-8,28.8,27.6,26.3,24.9,23.7,22.6,87,85,82,30.50,30.32,10,4,13,0.00
2013-2-9,35.9,32.5,28.2,31.6,28.2,24.6,89,84,76,30.48,30.17,9,4,15,0.00
2013-2-10,49.6,45.1,38.7,47.7,43.1,37.0,96,93,68,29.90,29.58,12,9,19,0.49
2013-2-11,35.4,33.0,30.8,26.7,24.9,22.9,79,72,65,30.19,29.86,11,7,16,0.00
2013-2-12,39.1,33.0,27.9,27.6,25.8,23.7,88,75,60,30.27,30.07,5,2,7,0.00
2013-2-13,46.3,38.0,25.3,33.9,30.3,23.4,93,75,59,29.94,29.87,6,2,12,0.00
2013-2-14,40.6,37.5,35.2,32.0,31.0,29.9,85,77,70,30.12,29.83,7,3,11,0.00
2013-2-15,33.5,27.7,22.7,17.9,15.7,13.0,80,61,43,30.37,30.26,7,5,11,0.00
2013-2-16,28.5,23.0,13.4,16.3,12.9,7.5,80,66,55,30.37,30.28,6,4,11,0.00
2013-2-17,38.0,30.7,13.3,24.3,19.8,9.4,84,64,52,30.34,30.05,7,4,12,0.00
2013-2-18,53.7,45.3,29.2,47.7,39.5,26.0,96,81,64,29.81,29.56,13,8,20,0.42
2013-2-19,23.5,17.9,12.5,14.6,10.3,5.8,85,72,63,30.35,29.99,12,8,19,0.00
2013-2-20,21.6,15.5,5.1,14.1,8.9,0.0,83,75,65,30.57,30.48,7,4,11,0.00
2013-2-21,29.2,24.6,15.1,24.2,20.7,12.2,93,85,79,30.51,30.06,18,7,30,0.00
2013-2-22,32.4,31.0,28.4,31.3,30.0,27.7,98,96,89,29.98,29.90,6,3,11,0.00
2013-2-23,30.7,26.4,21.0,21.7,19.4,17.2,85,75,67,30.13,30.08,6,2,9,0.01
2013-2-24,33.6,31.3,29.6,26.4,25.8,25.3,84,80,73,30.24,30.21,4,0,4,0.08
2013-2-25,42.7,37.0,24.4,35.0,30.5,22.2,93,78,67,30.24,30.05,14,7,16,0.01
2013-2-26,35.6,32.2,31.7,31.5,31.1,28.4,98,96,75,29.72,29.59,23,11,27,0.09
2013-2-27,33.0,31.8,29.8,31.5,30.2,28.5,96,93,89,29.91,29.76,5,3,7,0.05
2013-2-28,36.6,33.8,31.9,32.1,31.2,30.3,96,90,82,30.19,30.03,6,3,9,0.04
2013-3-1,30.0,27.1,24.6,24.4,22.8,20.7,90,84,77,30.35,30.21,11,7,17,0.00
2013-3-2,28.0,23.5,16.3,16.6,14.6,12.3,84,69,55,30.38,30.33,10,4,12,0.00
2013-3-3,36.5,29.1,12.5,18.7,14.4,10.4,91,56,36,30.32,30.20,5,1,6,0.00
2013-3-4,39.0,33.7,27.6,29.7,27.4,21.7,90,78,66,30.15,30.01,8,4,11,0.03
2013-3-5,32.5,31.3,29.1,31.5,29.2,26.5,97,92,85,30.15,29.96,9,4,17,0.00
2013-3-6,31.1,27.3,22.5,24.1,22.3,19.5,88,81,72,30.48,30.36,6,4,10,0.01
2013-3-7,37.9,32.0,24.4,27.7,25.1,21.6,91,76,64,30.56,30.48,5,2,7,0.05
2013-3-8,46.3,38.3,22.3,35.5,31.4,21.0,95,77,63,30.56,30.39,5,2,10,0.01
2013-3-9,49.1,42.6,36.7,42.9,38.8,33.2,95,87,76,30.25,29.89,7,4,15,0.30
2013-3-10,51.1,49.3,47.2,50.3,48.2,45.6,98,96,93,29.85,29.66,7,3,10,0.84
2013-3-11,36.1,34.3,31.7,35.6,32.2,27.8,98,92,85,29.97,29.74,9,6,16,0.05
2013-3-12,38.1,32.0,25.6,32.2,26.9,21.7,91,82,69,30.24,30.08,9,5,14,0.00
2013-3-13,35.2,28.4,22.4,21.0,19.1,15.2,85,69,46,30.50,30.34,8,5,14,0.00
2013-3-14,45.7,36.1,25.2,33.6,28.3,22.9,91,74,57,30.45,30.23,7,2,9,0.00
2013-3-16,38.8,36.0,32.8,33.2,30.5,27.6,93,81,72,30.22,30.02,11,7,16,0.00
2013-3-17,36.5,33.7,29.6,29.3,26.9,23.3,81,76,69,30.29,30.07,16,9,19,0.00
2013-3-18,40.1,33.3,26.2,34.8,29.4,18.0,95,86,69,30.03,29.80,10,5,18,0.03
2013-3-19,39.4,30.2,19.7,18.3,14.2,10.6,70,52,35,30.29,30.12,9,6,19,0.00
2013-3-20,28.1,22.7,16.2,11.5,8.6,5.5,76,55,43,30.34,30.24,9,7,15,0.00
2013-3-21,36.0,25.6,11.7,14.2,11.1,8.0,86,56,38,30.26,30.14,5,1,6,0.00
2013-3-22,44.3,35.2,17.7,22.2,18.0,14.3,90,53,34,30.21,30.11,4,1,7,0.00
2013-3-23,46.6,40.4,29.9,26.9,24.5,22.1,76,54,41,30.22,30.07,13,7,16,0.00
2013-3-24,32.1,30.9,29.2,31.3,29.6,27.5,98,95,90,29.96,29.77,13,8,20,0.00
2013-3-25,36.7,32.5,27.0,27.9,26.5,24.5,96,79,68,30.24,29.93,8,5,17,0.05
2013-3-26,38.9,35.0,29.5,28.4,26.2,24.2,84,71,57,30.41,30.30,6,3,9,0.00
2013-3-27,44.1,38.4,29.8,28.3,25.4,21.9,86,61,44,30.49,30.42,4,2,7,0.00
2013-3-29,58.9,52.5,41.5,32.5,31.1,29.7,67,45,35,30.34,30.31,4,1,9,0.00
2013-3-30,56.7,50.4,34.7,43.6,40.0,31.8,89,68,55,30.24,30.00,10,5,13,0.00
2013-3-31,59.3,53.1,44.3,46.3,38.7,28.8,92,61,38,30.00,29.90,9,5,15,0.00
2013-4-1,42.1,39.1,33.0,19.0,17.1,14.8,56,41,35,30.32,30.28,8,5,11,0.00
2013-4-2,46.4,38.8,22.6,23.3,17.0,11.3,83,44,25,30.46,30.37,6,3,11,0.00
2013-4-3,51.4,45.1,35.2,19.4,16.7,14.0,52,33,23,30.46,30.42,5,1,10,0.00
2013-4-4,55.2,43.6,27.7,27.7,23.6,20.7,85,49,28,30.34,30.21,4,2,8,0.00
2013-4-5,59.2,50.7,36.1,32.3,27.3,22.6,80,43,26,30.31,30.17,13,5,15,0.00
2013-4-6,71.6,63.2,45.7,51.0,38.8,31.3,68,42,26,30.05,29.73,19,10,29,0.00
2013-4-7,70.0,58.8,41.7,43.7,42.1,39.5,92,57,37,30.04,29.93,7,2,9,0.00
2013-4-8,73.3,65.3,57.0,59.2,56.3,52.6,93,74,57,29.94,29.69,14,5,20,0.78
2013-4-9,78.3,70.2,57.9,62.1,59.8,55.6,93,71,53,29.92,29.85,12,5,18,0.00
2013-4-10,47.7,44.1,40.6,46.4,42.7,39.1,97,95,91,30.02,29.81,20,10,26,1.24
2013-4-11,49.9,45.2,38.9,46.4,41.8,33.0,98,88,76,29.76,29.71,9,5,18,0.08
2013-4-12,42.9,40.3,37.1,36.7,34.7,33.6,92,81,70,30.00,29.74,10,6,14,0.01
2013-4-13,52.3,45.2,35.3,38.4,30.6,24.4,73,57,46,30.12,30.04,8,5,12,0.00
2013-4-14,75.9,66.4,47.8,53.9,47.9,41.6,80,53,38,29.94,29.67,13,8,22,0.00
2013-4-15,61.3,55.1,46.5,55.5,49.9,41.9,97,83,60,30.09,29.83,8,3,12,0.53
2013-4-16,51.8,46.8,39.8,40.7,37.9,34.1,86,72,60,30.30,30.17,10,6,13,0.12
2013-4-17,57.7,47.7,44.2,56.6,44.7,37.2,98,90,74,30.25,29.85,16,7,20,1.46
2013-4-18,62.2,54.6,42.5,60.8,52.8,37.4,99,94,80,29.75,29.52,16,8,30,1.98
2013-4-19,36.8,36.6,36.1,31.0,30.5,30.2,81,78,77,29.78,29.73,9,7,11,0.00
2013-4-20,48.3,43.7,36.8,31.4,28.3,24.8,78,55,42,30.48,30.36,5,2,7,0.00
2013-4-21,59.2,52.2,39.1,42.5,37.5,29.5,71,58,51,30.56,30.37,9,4,14,0.00
2013-4-22,69.1,57.7,41.5,45.8,40.4,35.2,79,55,32,30.34,30.09,7,3,12,0.00
2013-4-23,53.2,43.2,38.2,49.6,41.3,36.6,95,93,87,30.11,30.02,9,4,14,0.64
2013-4-24,50.8,44.0,36.3,35.2,32.5,29.4,95,66,45,30.26,30.14,8,4,12,0.03
2013-4-25,56.3,48.6,40.7,35.5,30.2,25.8,80,50,36,30.42,30.27,9,4,14,0.00
2013-4-26,47.9,46.0,45.3,37.0,36.6,36.2,71,70,67,30.39,30.37,6,5,8,0.00
2013-4-27,58.0,54.4,47.8,51.7,49.7,46.2,94,84,67,30.32,30.10,5,1,7,0.01
2013-4-28,69.3,61.5,52.2,53.7,52.6,51.4,98,74,55,30.02,29.92,6,2,9,0.00
2013-4-29,77.4,66.9,47.4,61.3,56.1,46.5,97,70,53,30.00,29.80,11,6,18,0.00
2013-4-30,86.2,75.9,60.3,62.8,58.0,51.4,94,58,32,29.96,29.84,11,7,16,0.00
2013-5-1,84.6,76.8,60.0,58.9,53.6,48.6,86,47,30,30.16,30.08,8,4,13,0.00
2013-5-2,68.6,59.5,47.1,53.4,49.2,41.9,85,69,55,30.25,30.18,12,6,17,0.00
2013-5-3,60.4,49.6,43.9,59.3,48.6,42.6,99,96,93,30.11,29.91,17,6,20,1.06
2013-5-4,65.5,59.3,54.2,58.6,55.9,52.8,96,89,72,30.12,29.98,5,1,6,0.27
2013-5-5,73.1,63.9,52.4,59.0,52.7,44.4,99,70,36,30.09,29.99,14,6,16,0.00
2013-5-6,75.1,67.8,55.5,53.7,46.0,38.3,85,50,27,30.11,30.03,14,6,17,0.00
2013-5-7,80.7,71.3,48.4,48.0,39.6,31.9,88,35,19,30.13,30.04,7,2,12,0.00
2013-5-8,80.6,75.0,69.3,54.7,49.2,44.0,59,41,28,30.05,30.03,3,0,4,0.00
2013-5-9,70.9,63.8,60.6,63.1,61.1,58.8,97,91,67,30.05,29.89,11,2,13,0.37
2013-5-10,59.2,52.2,49.4,57.5,49.5,47.6,96,91,87,30.08,29.90,9,4,13,0.01
2013-5-11,60.0,55.8,47.3,51.9,36.3,28.6,92,51,32,30.20,30.02,8,5,17,0.00
2013-5-12,58.1,52.3,38.4,33.3,28.5,23.6,76,41,31,30.29,30.21,6,3,12,0.00
2013-5-13,70.7,60.4,34.5,43.6,36.2,30.2,96,45,26,30.30,30.10,5,2,10,0.00
2013-5-14,91.4,78.1,54.4,65.2,57.8,47.0,77,51,37,29.95,29.76,6,4,10,0.00
2013-5-15,83.7,76.9,70.5,60.4,56.0,50.4,61,49,33,29.92,29.86,8,3,14,0.00
2013-5-16,84.6,74.5,59.5,63.5,57.1,50.5,91,58,36,30.02,29.91,7,2,11,0.10
2013-5-17,81.3,72.9,58.5,69.0,61.3,56.8,94,69,45,30.06,29.98,5,1,9,0.49
2013-5-18,81.3,74.5,65.4,68.1,65.1,63.2,96,74,56,30.09,29.98,5,1,8,0.00
2013-5-19,89.4,84.6,79.1,72.3,70.4,68.3,76,63,53,29.95,29.76,9,5,18,0.00
2013-5-20,82.4,74.5,62.5,67.9,62.8,59.7,95,69,47,29.89,29.74,12,6,20,0.65
2013-5-21,80.7,74.0,62.0,65.8,62.8,58.9,96,70,50,29.79,29.72,8,4,10,0.00
2013-5-22,71.1,65.7,60.4,61.1,57.5,54.6,95,76,57,29.85,29.71,7,3,14,0.10
2013-5-23,62.3,58.7,54.2,56.7,53.0,49.8,96,82,65,30.30,29.93,14,7,18,0.02
2013-5-24,68.4,64.2,55.9,44.9,40.7,36.0,66,43,35,30.47,30.38,8,2,9,0.00
2013-5-25,53.1,50.9,47.3,50.0,45.5,36.4,94,82,56,30.51,30.33,10,3,13,0.46
2013-5-26,66.5,58.9,50.6,60.1,55.9,49.2,97,90,80,30.36,30.13,10,2,18,1.45
2013-5-27,70.2,66.0,59.6,67.0,63.8,59.0,98,93,86,30.07,29.87,8,2,9,0.53
2013-5-28,77.8,72.0,65.2,70.8,67.5,62.2,95,86,76,29.91,29.78,14,6,20,0.31
2013-5-29,85.6,76.9,61.8,71.8,67.4,60.6,96,74,58,29.99,29.88,9,5,12,0.74
2013-5-30,83.7,74.1,62.6,72.2,67.3,60.8,97,80,63,29.92,29.79,13,8,20,0.84
2013-5-31,74.9,69.4,63.9,71.2,66.5,61.7,98,90,79,29.94,29.76,9,4,16,0.19
2013-6-1,74.8,69.0,62.9,69.3,63.8,58.8,96,84,63,29.85,29.75,10,5,14,0.39
2013-6-2,61.8,60.1,57.6,57.2,53.9,51.0,87,80,70,30.11,29.97,5,2,10,0.00
2013-6-3,68.5,61.9,47.2,53.0,48.4,42.8,98,63,48,30.23,30.10,6,2,12,0.00
2013-6-4,74.4,67.4,50.0,56.8,52.6,48.1,93,60,47,30.22,30.10,5,2,10,0.00
2013-6-5,77.9,70.8,55.5,62.0,58.3,53.8,95,66,49,30.11,29.95,8,2,14,0.00
2013-6-6,72.8,64.7,57.6,61.8,58.7,54.5,93,81,63,29.96,29.93,6,2,9,0.06
2013-6-7,74.4,65.7,55.0,56.7,53.7,51.2,89,66,52,30.03,29.97,11,4,14,0.00
2013-6-8,78.3,72.0,57.4,57.9,53.8,48.3,86,54,42,30.06,29.99,5,1,7,0.00
2013-6-9,82.1,71.1,63.8,66.6,62.2,58.2,94,75,49,29.98,29.85,9,4,12,0.47
2013-6-10,79.2,71.8,60.4,65.6,62.6,59.8,98,74,56,29.95,29.85,4,1,5,0.00
2013-6-11,87.0,74.2,59.5,74.6,67.1,58.6,98,79,65,30.01,29.86,5,1,7,0.00
2013-6-12,92.5,85.0,71.0,75.3,72.7,68.6,92,68,53,29.95,29.66,10,5,14,0.00
2013-6-13,82.1,76.1,66.1,64.0,56.7,52.0,91,53,37,30.07,29.89,10,6,16,0.02
2013-6-14,79.9,72.2,58.6,62.6,58.1,54.7,88,62,48,30.20,30.04,6,2,10,0.00
2013-6-15,76.6,73.2,67.8,70.3,67.9,64.0,94,84,77,30.14,29.95,11,3,12,0.60
2013-6-16,82.9,76.7,67.9,72.9,69.3,65.8,93,79,65,30.05,29.97,2,1,8,0.00
2013-6-17,86.3,81.5,73.6,70.6,65.9,56.7,83,60,38,30.03,29.95,4,1,5,0.00
2013-6-18,70.1,69.8,69.6,58.2,58.1,57.9,67,66,66,30.09,30.08,8,7,10,0.00
2013-6-19,85.3,73.3,55.4,61.6,56.7,51.0,87,59,35,30.19,30.10,6,2,7,0.00
2013-6-21,89.0,77.5,68.6,74.8,69.8,64.5,94,78,60,30.18,30.01,20,6,20,0.14
2013-6-22,87.5,79.2,71.0,77.3,72.2,65.4,92,80,69,30.13,30.01,10,4,16,0.00
2013-6-23,88.3,77.8,70.6,74.5,69.8,66.9,89,77,62,30.08,29.96,7,4,12,0.00
2013-6-24,87.0,74.3,66.2,75.7,69.5,65.3,98,86,68,30.18,29.93,9,2,14,1.53
2013-6-25,85.7,79.4,72.9,76.4,72.9,68.6,97,81,69,29.99,29.87,8,4,13,0.01
2013-6-26,86.5,78.3,66.5,76.2,72.0,65.1,97,82,67,29.90,29.78,6,2,7,0.36
2013-6-27,88.8,82.0,73.6,74.6,71.4,68.1,92,71,54,29.92,29.82,4,2,8,0.00
2013-6-28,83.8,78.0,68.4,67.2,62.8,58.7,87,61,43,29.83,29.74,6,2,10,0.00
2013-6-29,73.5,69.1,65.4,66.3,64.0,61.2,94,84,75,29.84,29.71,13,5,18,0.23
2013-6-30,78.3,71.1,62.4,64.1,61.2,55.6,92,72,52,30.05,29.93,15,8,21,0.06
2013-7-1,77.6,71.3,57.6,55.8,52.8,48.9,84,54,38,30.13,30.08,14,9,19,0.00
2013-7-2,74.9,69.7,57.8,58.6,54.3,44.8,83,59,35,30.15,30.09,13,7,19,0.00
2013-7-3,80.1,70.7,55.7,60.5,55.7,49.4,96,62,37,30.16,30.09,6,2,9,0.00
2013-7-4,85.5,79.4,68.2,67.7,63.5,58.8,83,60,42,30.16,30.07,4,2,11,0.00
2013-7-5,85.7,78.9,63.5,68.9,64.2,57.8,96,63,41,30.15,30.07,5,2,8,0.00
2013-7-6,86.6,79.3,70.2,70.2,68.2,63.9,90,70,48,30.13,30.03,4,2,6,0.00
2013-7-7,89.6,82.6,68.1,73.8,70.5,64.7,89,68,51,30.08,30.01,5,2,8,0.00
2013-7-8,73.5,72.5,71.6,70.9,70.1,69.5,95,92,88,30.11,30.06,5,1,6,0.27
2013-7-9,88.9,83.5,76.1,78.9,76.3,72.9,95,80,66,30.07,29.93,5,2,8,0.03
2013-7-10,87.5,81.2,72.2,75.1,69.0,63.0,94,68,51,30.04,29.91,11,3,16,0.00
2013-7-11,80.1,74.4,60.9,65.8,60.0,55.8,97,63,45,30.17,30.13,10,4,15,0.00
2013-7-12,83.3,74.7,55.3,63.4,57.7,51.4,98,59,36,30.23,30.13,5,2,8,0.00
2013-7-13,83.9,75.3,57.5,65.6,61.8,56.5,97,65,44,30.22,30.14,6,2,10,0.00
2013-7-14,89.5,81.4,66.2,72.1,68.5,64.1,94,67,50,30.23,30.19,4,1,9,0.00
2013-7-15,89.9,82.7,71.4,77.1,74.0,69.9,95,76,58,30.31,30.25,10,2,12,0.00
2013-7-16,91.2,87.6,77.8,76.3,74.3,71.8,88,66,55,30.34,30.30,4,2,7,0.00
2013-7-17,93.6,88.7,75.8,78.8,75.1,72.1,92,65,51,30.39,30.25,3,1,5,0.00
2013-7-18,93.4,90.6,83.6,77.0,75.4,73.9,76,62,55,30.15,30.05,4,2,6,0.00
2013-7-19,93.7,90.0,82.9,76.0,72.8,69.7,72,58,47,30.01,29.86,8,4,15,0.00
2013-7-20,86.1,80.1,71.2,69.6,66.7,62.0,90,65,45,29.98,29.92,8,4,12,0.01
2013-7-21,80.9,77.3,66.2,74.0,71.6,65.3,97,83,72,30.01,29.91,4,1,8,0.03
2013-7-22,87.9,80.1,65.4,73.8,71.0,64.8,98,75,59,29.92,29.82,4,1,8,0.01
2013-7-23,79.4,73.8,64.5,70.5,67.0,63.5,98,80,65,29.95,29.85,6,2,12,0.01
2013-7-24,75.0,69.0,60.1,59.5,56.1,52.7,91,65,51,30.14,30.10,9,5,14,0.00
2013-7-25,81.3,73.8,55.2,62.4,59.1,54.4,97,62,45,30.20,30.12,4,1,5,0.00
2013-7-26,74.8,67.7,62.5,69.7,64.9,60.1,96,91,79,30.11,29.99,6,2,9,0.70
2013-7-27,67.3,62.2,55.0,58.2,53.1,49.2,97,74,56,30.07,30.03,4,2,10,0.01
2013-7-28,72.3,69.2,60.5,56.7,55.1,53.5,81,61,54,30.12,30.07,4,2,8,0.00
2013-7-29,78.3,69.2,50.2,60.2,56.2,49.7,98,66,44,30.25,30.20,4,1,6,0.00
2013-7-30,69.2,65.7,63.0,67.9,64.5,61.0,98,96,92,30.22,30.10,4,1,5,0.83
2013-7-31,75.2,71.1,67.9,68.8,68.0,67.2,99,90,79,30.12,30.08,3,1,7,0.01
2013-8-1,82.1,78.4,68.9,67.1,64.0,60.8,88,62,50,30.13,30.03,3,1,5,0.01
2013-8-2,85.1,78.7,69.7,72.0,68.8,63.6,86,72,58,30.00,29.94,6,3,8,0.00
2013-8-3,79.6,74.0,63.3,64.6,61.3,58.3,92,66,50,30.18,30.09,7,3,11,0.00
2013-8-4,79.0,72.2,57.1,64.4,58.1,52.3,96,63,40,30.27,30.17,5,2,7,0.00
2013-8-5,77.0,70.7,57.9,68.6,65.1,57.0,98,83,73,30.13,29.94,5,2,10,0.17
2013-8-6,86.6,77.9,67.2,75.9,72.5,66.6,98,84,68,29.98,29.88,4,2,7,0.00
2013-8-7,86.7,77.7,69.6,78.1,72.2,66.2,97,84,63,30.01,29.87,6,2,6,0.00
2013-8-8,78.8,72.1,64.4,68.8,66.1,62.9,96,82,68,30.07,30.00,8,4,13,0.00
2013-8-9,82.0,75.0,59.7,69.5,65.0,58.8,98,72,57,30.11,30.07,2,0,3,0.00
2013-8-10,79.9,73.3,62.0,65.1,60.7,57.0,92,66,50,30.23,30.17,7,2,12,0.00
2013-8-11,83.8,78.6,68.3,69.0,64.9,60.8,88,64,52,30.22,30.11,3,1,6,0.00
2013-8-12,81.7,75.2,62.7,73.2,68.6,61.5,97,81,67,30.09,29.97,3,1,5,0.10
2013-8-13,72.7,67.7,61.9,53.6,52.5,50.4,74,59,47,30.21,30.17,6,3,10,0.00
2013-8-14,73.1,65.6,48.4,57.5,53.3,47.8,98,67,46,30.32,30.23,7,2,10,0.00
2013-8-15,75.6,66.9,54.2,61.7,56.9,53.3,97,72,48,30.28,30.18,3,0,5,0.00
2013-8-16,78.4,69.7,53.5,62.0,57.6,52.7,97,68,44,30.27,30.21,6,2,10,0.00
2013-8-17,78.8,70.2,53.0,63.3,59.2,52.5,98,70,50,30.31,30.22,8,2,11,0.00
2013-8-18,82.3,74.2,57.7,64.5,60.4,56.4,97,64,45,30.29,30.18,6,2,8,0.00
2013-8-19,84.7,78.1,59.2,68.2,66.0,58.6,98,68,52,30.21,30.11,4,1,6,0.00
2013-8-20,86.7,77.9,63.0,70.3,67.0,62.0,97,71,50,30.19,30.10,5,2,7,0.00
2013-8-21,88.3,80.7,65.3,71.9,68.4,63.9,96,68,51,30.17,30.06,5,2,9,0.00
2013-8-22,81.0,76.5,70.1,72.7,69.8,67.1,91,80,72,30.17,30.10,11,3,16,0.00
2013-8-23,83.4,75.0,63.3,69.6,66.3,62.6,98,76,56,30.23,30.16,7,3,10,0.00
2013-8-24,87.7,81.1,64.9,71.1,68.7,61.6,89,67,54,30.31,30.22,4,2,8,0.00
2013-8-25,89.4,81.6,65.2,70.9,68.1,63.4,95,65,46,30.33,30.22,5,3,9,0.00
2013-8-26,92.0,83.5,64.3,75.3,71.6,62.5,96,69,52,30.25,30.08,4,2,8,0.00
2013-8-27,94.0,85.5,72.4,74.7,71.8,68.4,93,66,47,30.09,29.97,6,3,11,0.00
2013-8-28,93.5,85.9,74.9,78.9,73.2,66.4,86,67,56,30.05,29.99,7,2,9,0.00
2013-8-29,85.5,78.5,70.7,75.6,72.6,69.2,96,83,70,30.13,30.03,6,3,10,0.00
2013-8-30,97.3,86.6,69.9,78.0,74.2,69.0,98,69,43,30.01,29.85,4,2,9,0.00
2013-8-31,90.6,83.4,73.8,78.1,74.0,66.1,92,74,64,29.87,29.81,7,2,10,0.00
2013-9-1,89.2,81.9,67.1,74.1,69.5,62.9,98,68,49,29.90,29.82,4,2,8,0.00
2013-9-2,80.3,75.7,63.2,65.0,59.9,57.3,81,59,49,30.04,30.00,4,1,8,0.00
2013-9-3,78.6,69.1,52.0,61.9,58.5,50.9,98,71,49,30.19,30.10,3,1,6,0.00
2013-9-4,73.2,68.9,65.1,63.4,61.9,59.9,86,79,65,30.19,30.17,0,0,0,0.00
2013-9-5,86.8,77.1,58.4,70.1,64.8,57.3,97,68,50,30.28,30.20,6,2,10,0.00
2013-9-6,87.3,76.3,57.7,66.3,63.0,54.5,90,66,44,30.27,30.09,5,2,9,0.00
2013-9-7,89.2,81.0,65.2,73.8,68.1,63.1,93,66,48,30.10,29.96,5,2,8,0.00
2013-9-8,88.0,80.8,69.7,72.9,70.9,68.2,96,73,57,30.05,29.95,7,2,10,0.01
2013-9-9,96.1,85.2,71.5,76.3,72.9,70.4,97,69,45,29.97,29.90,5,3,11,0.00
2013-9-10,95.5,85.4,68.9,70.2,67.6,64.2,87,58,39,30.10,30.03,7,3,15,0.00
2013-9-11,91.8,82.7,74.4,70.4,68.0,65.2,80,62,47,30.14,30.07,5,2,7,0.00
2013-9-12,82.2,75.2,64.3,69.1,56.9,45.4,97,58,29,30.15,30.07,7,2,13,0.14
2013-9-13,70.4,59.7,46.6,49.8,43.4,35.1,91,59,30,30.28,30.19,10,4,14,0.00
2013-9-14,74.2,64.3,44.9,50.0,45.6,39.6,98,54,30,30.29,30.13,5,2,6,0.00
2013-9-15,66.2,62.0,57.6,61.4,57.0,50.4,95,84,73,30.21,30.07,6,3,10,0.16
2013-9-16,69.9,62.9,55.4,55.3,52.8,49.5,96,71,53,30.43,30.34,11,6,16,0.00
2013-9-17,74.6,64.5,48.5,60.2,55.3,47.4,97,74,54,30.37,30.18,5,2,7,0.00
2013-9-18,86.0,75.8,61.8,71.2,66.2,57.6,88,73,58,30.13,29.97,8,4,12,0.00
2013-9-19,91.1,82.2,69.9,72.3,70.1,67.5,93,68,52,30.00,29.84,8,4,11,0.00
2013-9-20,71.8,67.4,58.5,67.2,59.8,51.1,97,78,51,29.97,29.91,4,2,10,0.12
2013-9-21,70.1,61.1,48.8,53.9,49.9,47.2,96,69,44,30.04,29.97,7,2,11,0.01
2013-9-22,71.1,62.6,44.7,51.7,49.0,44.2,98,64,41,30.15,30.05,5,1,10,0.00
2013-9-23,75.5,63.4,42.7,52.1,48.5,41.9,98,62,37,30.17,30.05,5,1,8,0.00
2013-9-24,75.9,65.9,47.1,57.4,53.6,45.6,97,67,47,30.08,29.95,9,2,10,0.00
2013-9-25,79.1,68.4,53.4,59.8,56.0,50.2,90,66,49,30.01,29.95,8,4,12,0.00
2013-9-26,82.7,70.7,52.3,63.3,57.9,50.9,96,66,44,30.11,30.05,5,1,7,0.00
2013-9-27,83.6,70.8,50.2,59.7,53.2,48.0,95,58,31,30.21,30.09,5,2,10,0.00
2013-9-28,82.8,73.5,60.7,68.0,63.6,56.3,95,73,51,30.11,29.97,11,4,17,0.24
2013-9-29,71.2,61.0,48.4,56.3,47.3,40.8,98,65,34,30.17,30.08,9,2,11,0.01
2013-9-30,77.7,63.9,43.2,56.8,51.0,42.5,99,67,40,30.09,29.95,6,2,10,0.00
2013-10-1,79.8,71.7,62.6,67.3,65.3,62.0,98,82,63,30.06,29.99,6,4,10,0.00
2013-10-2,82.0,71.4,62.0,68.8,65.5,61.4,98,83,56,30.14,30.02,4,1,8,0.01
2013-10-3,81.9,71.9,63.6,71.8,67.7,62.4,98,88,68,30.02,29.89,6,2,11,1.20
2013-10-4,85.6,75.8,66.4,73.2,69.1,65.5,98,81,57,30.02,29.95,5,2,11,0.00
2013-10-5,76.1,70.4,58.9,71.5,66.7,55.4,97,88,75,29.97,29.86,7,3,10,0.03
2013-10-6,53.9,49.6,45.7,45.3,42.1,38.8,94,76,59,29.91,29.85,6,3,11,0.00
2013-10-7,70.1,60.8,48.1,50.5,47.9,44.9,97,65,41,30.16,30.00,4,2,7,0.01
2013-10-8,76.7,63.7,43.9,53.7,48.8,42.8,98,63,36,30.28,30.19,5,2,10,0.00
2013-10-9,74.3,62.6,44.6,51.3,47.8,43.8,98,62,36,30.31,30.19,3,1,9,0.00
2013-10-10,77.2,64.8,44.9,59.0,54.6,44.3,98,72,50,30.25,30.10,6,2,9,0.00
2013-10-11,78.9,68.7,54.3,61.2,56.9,53.3,98,69,45,30.13,29.97,8,4,13,0.00
2013-10-12,72.6,64.8,53.4,61.8,50.7,40.7,93,63,34,30.25,30.03,5,2,8,0.00
2013-10-13,67.2,61.2,47.5,43.5,35.0,29.6,81,40,25,30.50,30.43,5,2,8,0.00
2013-10-14,66.0,55.9,36.7,46.0,42.4,35.9,97,63,39,30.48,30.22,6,2,11,0.00
2013-10-15,71.0,62.3,53.2,62.0,55.3,45.0,95,79,60,30.02,29.88,8,4,13,0.05
2013-10-16,52.8,51.5,49.1,45.1,44.2,42.4,79,76,73,30.08,30.03,6,2,14,0.00
2013-10-17,61.6,52.9,43.5,48.1,42.3,36.9,96,70,41,30.04,29.94,5,2,11,0.12
2013-10-18,54.6,47.9,41.7,42.2,39.6,37.4,94,74,54,30.12,30.01,4,2,9,0.00
2013-10-19,55.8,49.5,37.4,40.2,37.1,35.4,94,64,48,30.03,29.94,8,4,16,0.01
2013-10-20,69.4,57.8,38.8,45.7,43.0,37.2,95,61,39,29.98,29.83,7,4,17,0.00
2013-10-21,48.9,43.5,32.2,40.9,30.7,24.2,89,63,40,30.12,30.02,5,2,11,0.00
2013-10-22,39.8,36.3,30.8,38.5,34.8,29.5,96,94,92,30.12,29.95,12,4,15,0.35
2013-10-23,45.3,39.3,30.9,35.0,30.8,28.6,95,73,54,30.20,30.12,4,2,9,0.00
2013-10-24,42.5,37.5,31.5,27.2,25.2,23.4,80,61,48,30.46,30.24,5,2,11,0.00
2013-10-25,53.9,42.9,24.3,34.8,28.5,23.0,96,61,34,30.57,30.27,7,3,11,0.00
2013-10-26,55.5,49.1,37.9,38.0,32.8,28.8,72,54,37,30.23,30.06,7,3,17,0.00
2013-10-27,57.4,46.5,26.5,35.6,31.5,25.3,97,59,38,30.22,30.09,5,2,9,0.00
2013-10-28,60.5,49.1,30.3,41.5,35.1,28.7,95,62,38,30.41,30.23,11,4,12,0.00
2013-10-29,56.1,48.3,38.4,50.2,42.1,36.9,95,80,59,30.41,30.22,7,2,7,0.00
2013-10-30,61.4,57.6,53.2,60.8,57.0,52.4,99,98,97,30.15,29.90,12,2,17,0.93
2013-10-31,62.3,57.5,46.2,61.1,56.3,44.5,98,96,92,29.72,29.39,5,2,8,1.21
2013-11-1,53.3,47.2,42.3,45.7,43.5,40.9,96,88,70,29.89,29.66,5,2,9,0.02
2013-11-2,52.1,45.2,37.1,39.2,36.4,33.3,97,73,52,30.26,30.02,5,2,12,0.00
2013-11-3,55.0,44.2,25.3,40.1,35.1,24.6,98,73,46,30.41,30.27,6,2,8,0.01
2013-11-4,58.7,52.5,45.7,45.8,42.3,38.5,77,68,58,30.27,30.17,8,5,14,0.00
2013-11-5,54.6,53.1,51.5,52.9,51.1,47.7,96,93,86,30.34,30.06,7,3,8,0.07
2013-11-6,57.2,44.6,35.5,56.4,42.2,32.0,97,91,82,30.30,29.92,4,2,7,0.58
2013-11-7,49.5,38.7,28.0,39.7,33.0,26.5,95,81,63,30.43,30.35,4,1,8,0.01
2013-11-8,48.6,44.6,26.5,37.2,34.0,25.5,97,67,55,30.45,30.09,8,4,11,0.00
2013-11-9,61.9,55.1,46.8,41.8,39.5,37.2,77,57,43,30.26,30.06,6,3,12,0.00
2013-11-10,49.2,41.1,32.4,33.6,31.9,29.4,89,71,52,30.43,30.38,2,0,4,0.00
2013-11-11,51.6,41.7,28.3,39.9,35.1,26.3,96,79,61,30.58,30.23,9,3,15,0.02
2013-11-12,32.0,25.2,16.2,24.1,19.3,13.5,89,79,66,30.90,30.80,3,1,5,0.00
2013-11-13,41.9,33.5,17.7,22.0,19.6,15.7,92,59,36,30.75,30.37,6,4,12,0.01
2013-11-14,52.4,43.8,28.3,28.6,25.3,22.0,79,50,36,30.23,30.09,6,4,8,0.00
2013-11-15,49.4,42.7,34.2,40.1,34.7,28.5,93,74,58,30.11,30.01,4,2,7,0.00
2013-11-16,59.2,56.5,51.3,56.3,53.6,48.8,93,90,84,29.89,29.65,11,7,18,0.07
2013-11-17,68.5,56.0,46.2,64.1,50.8,40.7,98,83,75,29.90,29.29,11,6,16,0.84
2013-11-18,47.1,41.4,30.5,36.5,33.1,27.0,90,73,57,30.38,30.06,5,2,8,0.00
2013-11-19,47.3,36.1,21.7,30.6,27.6,20.2,96,73,46,30.48,30.35,4,1,8,0.00
2013-11-20,41.3,38.2,32.8,38.3,33.7,29.1,96,84,73,30.32,30.15,5,2,10,0.13
2013-11-21,49.2,46.0,42.5,46.8,44.3,40.6,97,94,87,30.32,30.19,3,0,5,0.14
2013-11-22,38.6,34.3,27.2,37.3,31.4,25.2,96,89,80,30.65,30.43,7,3,12,0.03
2013-11-23,24.5,21.5,16.0,19.0,13.8,9.8,86,72,59,30.89,30.71,6,3,9,0.00
2013-11-24,29.7,21.4,8.6,14.1,9.0,1.6,90,61,31,30.92,30.61,3,1,6,0.00
2013-11-25,34.4,30.5,26.1,26.3,21.9,16.4,83,70,60,30.41,30.26,5,3,9,0.00
2013-11-26,36.0,28.8,19.6,28.7,21.2,10.4,86,73,57,30.35,30.19,5,2,9,0.00
2013-11-27,27.2,20.6,16.1,13.0,11.8,10.9,85,69,51,30.42,30.39,0,0,2,0.00
2013-11-28,38.6,30.9,19.1,22.6,19.6,14.5,82,63,50,30.61,30.33,4,1,6,0.00
2013-11-29,38.3,30.6,12.5,24.9,22.0,10.9,94,71,52,30.75,30.50,4,1,7,0.00
2013-11-30,52.1,36.6,26.4,36.2,29.8,24.0,96,78,52,30.50,30.18,6,2,8,0.00
2013-12-1,48.3,36.4,27.6,34.6,30.7,26.4,96,81,57,30.25,30.11,3,0,7,0.00
2013-12-2,45.8,40.5,31.3,38.9,35.7,30.0,95,83,71,29.99,29.79,5,0,6,0.00
2013-12-3,50.7,46.4,39.3,49.9,45.7,38.5,98,97,95,29.79,29.70,4,1,6,0.00
2013-12-4,54.5,50.0,39.4,53.7,49.2,37.3,99,97,88,29.80,29.59,7,2,9,0.03
2013-12-5,24.9,21.8,19.3,20.8,14.8,12.5,84,74,68,30.41,30.10,4,2,7,0.00
2013-12-6,18.8,15.3,11.3,10.9,8.4,6.4,81,74,64,30.72,30.48,4,2,6,0.00
2013-12-7,20.3,14.0,5.0,9.1,5.6,2.0,87,69,52,30.89,30.70,6,2,9,0.00
2013-12-8,23.7,22.5,18.4,22.0,19.7,14.1,94,89,81,30.47,30.13,13,3,20,0.00
2013-12-9,20.2,14.8,3.2,13.8,8.3,-2.1,88,75,67,30.43,30.27,6,2,10,0.00
2013-12-10,26.3,19.3,10.2,14.5,9.3,3.0,82,65,51,30.44,30.23,7,3,11,0.00
2013-12-11,22.9,15.0,1.6,17.2,7.2,-4.5,88,71,53,30.76,30.39,8,2,9,0.00
2013-12-12,31.6,18.9,3.1,18.6,10.6,-1.7,84,70,58,30.66,30.41,6,2,10,0.00
2013-12-13,38.1,29.3,14.2,30.1,23.6,11.6,96,80,63,30.29,30.15,4,1,9,0.01
2013-12-14,31.6,27.0,19.5,30.1,25.1,17.4,97,92,88,30.20,30.05,0,0,0,0.00
2013-12-15,18.7,15.5,11.1,13.2,10.7,8.0,88,81,72,30.27,30.22,2,0,6,0.00
2013-12-16,23.4,19.1,13.8,19.7,15.9,11.2,95,87,77,30.27,30.15,7,2,8,0.00
2013-12-17,37.1,28.6,17.0,30.0,22.9,15.4,96,80,66,30.31,30.19,4,2,9,0.05
2013-12-18,37.5,27.7,9.2,29.0,20.5,5.9,90,75,61,30.32,29.98,6,3,10,0.03
2013-12-19,45.6,39.1,31.7,38.6,35.7,29.6,96,88,76,30.00,29.87,4,1,5,0.05
2013-12-20,37.6,34.1,30.4,37.1,33.6,29.7,98,98,97,29.97,29.83,7,3,10,0.14
2013-12-21,32.9,30.0,27.9,31.9,28.9,26.9,96,95,94,29.97,29.71,8,4,12,0.03
2013-12-22,30.3,27.5,20.9,28.3,25.6,18.4,96,92,89,30.29,29.88,2,1,5,0.00
2013-12-23,11.9,8.1,2.6,7.2,3.5,-2.4,85,81,79,30.69,30.58,3,2,4,0.00
2013-12-24,19.5,15.0,6.8,14.4,10.2,1.1,89,81,74,30.75,30.50,4,2,6,0.00
2013-12-25,29.1,27.2,22.7,26.8,25.1,20.5,94,92,89,30.41,30.30,4,2,7,0.00
2013-12-26,36.7,35.8,34.1,32.8,32.0,30.6,88,86,83,30.36,30.29,5,3,9,0.07
2013-12-27,44.7,37.8,23.8,35.9,32.3,22.8,97,81,69,30.44,30.28,5,2,7,0.10
2013-12-28,51.8,42.6,34.3,39.6,34.9,31.4,90,75,57,30.21,29.99,5,2,8,0.00
2013-12-29,29.0,19.8,7.8,27.2,16.1,2.4,94,86,78,30.39,30.00,4,3,9,0.00
2013-12-30,14.7,11.0,0.8,9.9,4.9,-4.7,88,77,60,30.51,30.34,2,0,4,0.00
2013-12-31,21.3,16.1,7.7,15.2,11.3,5.4,90,81,72,30.55,30.36,10,4,14,0.00
2014-1-1,23.1,20.1,15.1,20.4,17.4,12.7,92,89,85,30.36,30.28,10,7,14,0.00
2014-1-2,15.2,11.4,2.2,9.7,6.8,-0.5,89,82,77,30.61,30.37,5,2,7,0.00